Weather History for KDIK - August, 2013

Change the Weather History Date:

Friday, August 23, 2013

  Actual Average Record
Temperature  
Mean Temperature 78 °F 67 °F  
Max Temperature 92 °F 82 °F 104 °F (1937)
Min Temperature 63 °F 52 °F 31 °F (1911)
Degree Days  
Heating Degree Days 0 2  
Month to date heating degree days 8 29  
Since 1 June heating degree days 164 200  
Since 1 July heating degree days 40 63  
Cooling Degree Days 13 4  
Month to date cooling degree days 81 126  
Year to date cooling degree days 224 355  
Since 1 June cooling degree days 215 345  
Growing Degree Days 27 (Base 50)    
Moisture  
Dew Point 61 °F    
Average Humidity 63    
Maximum Humidity 87    
Minimum Humidity 38    
Precipitation  
Precipitation T in 0.05 in 2.95 in (1995)
Month to date precipitation 1.67 1.14  
Year to date precipitation 13.17 11.89  
Sea Level Pressure  
Sea Level Pressure 29.81 in    
Wind  
Wind Speed 13 mph (SSE)    
Max Wind Speed 23 mph    
Max Gust Speed 29 mph    
Visibility 10 miles    
Events Thunderstorm    
T = Trace of Precipitation, MM = Missing Value Source: NWS Daily Summary

Daily Weather History Graph

Daily Weather History Graph

Search for Another Location

Airport or City:

Trip Planner

Search our weather history database for the weather conditions in past years. The results will help you decide how hot, cold, wet, or windy it might be!

Date:

Astronomy

Aug. 23, 2013 Rise Set
Actual Time 5:59 AM MDT 7:46 PM MDT
Civil Twilight 5:27 AM MDT 8:19 PM MDT
Nautical Twilight 4:47 AM MDT 8:58 PM MDT
Astronomical Twilight 4:04 AM MDT 9:41 PM MDT
Moon 8:50 PM MDT (8/23) 9:12 AM MDT (8/23)
Length of Visible Light 14h 51m
Length of Day
13h 47m
Waning Gibbous, 91% of the Moon is Illuminated
Aug 23
Waning Gibbous
Aug 28
Last Quarter
Sep 5
New
Sep 12
First Quarter
Sep 19
Full

Hourly Weather History & Observations

Time (MDT) Temp. Heat Index Dew Point Humidity Pressure Visibility Wind Dir Wind Speed Gust Speed Precip Events Conditions
12:56 AM 64.0 °F - 53.1 °F 67% 29.96 in 10.0 mi ESE 11.5 mph - N/A   Clear
1:56 AM 66.0 °F - 53.1 °F 63% 29.94 in 10.0 mi SSE 13.8 mph - N/A   Clear
2:56 AM 66.0 °F - 55.0 °F 68% 29.92 in 10.0 mi SSE 12.7 mph - N/A   Mostly Cloudy
3:29 AM 64.4 °F - 55.4 °F 73% 29.96 in 10.0 mi SE 10.4 mph - N/A Thunderstorm Thunderstorm
3:56 AM 64.0 °F - 55.9 °F 75% 29.91 in 10.0 mi SE 8.1 mph - 0.00 in   Scattered Clouds
4:56 AM 63.0 °F - 57.0 °F 81% 29.90 in 10.0 mi SE 10.4 mph - N/A   Clear
5:56 AM 64.0 °F - 59.0 °F 84% 29.89 in 10.0 mi SE 10.4 mph - N/A   Clear
6:56 AM 66.9 °F - 62.1 °F 84% 29.88 in 10.0 mi SE 15.0 mph - N/A   Clear
7:56 AM 70.0 °F - 63.0 °F 78% 29.88 in 10.0 mi SSE 13.8 mph 21.9 mph N/A   Clear
8:56 AM 75.0 °F - 64.0 °F 69% 29.86 in 10.0 mi SSE 19.6 mph - N/A   Clear
9:56 AM 78.1 °F - 64.9 °F 64% 29.85 in 10.0 mi South 16.1 mph 23.0 mph N/A   Clear
10:56 AM 81.0 °F 83.0 °F 66.0 °F 60% 29.83 in 10.0 mi South 15.0 mph 24.2 mph N/A   Clear
11:56 AM 84.0 °F 85.8 °F 64.9 °F 53% 29.82 in 10.0 mi SSE 17.3 mph 28.8 mph N/A   Partly Cloudy
12:56 PM 88.0 °F 89.3 °F 64.0 °F 45% 29.79 in 10.0 mi South 17.3 mph 25.3 mph N/A   Clear
1:56 PM 90.0 °F 90.6 °F 63.0 °F 40% 29.77 in 10.0 mi South 15.0 mph 25.3 mph N/A   Clear
2:56 PM 88.0 °F 88.7 °F 63.0 °F 43% 29.75 in 10.0 mi South 17.3 mph - N/A   Clear
3:56 PM 91.0 °F 91.5 °F 62.1 °F 38% 29.73 in 10.0 mi South 19.6 mph 26.5 mph N/A   Clear
4:56 PM 91.0 °F 91.5 °F 62.1 °F 38% 29.72 in 10.0 mi SSE 16.1 mph 23.0 mph N/A   Clear
5:56 PM 89.1 °F 89.3 °F 62.1 °F 40% 29.71 in 10.0 mi SSE 16.1 mph - N/A   Clear
6:56 PM 84.0 °F 85.4 °F 64.0 °F 51% 29.70 in 10.0 mi SE 10.4 mph - N/A   Clear
7:56 PM 80.1 °F 81.7 °F 64.0 °F 58% 29.71 in 10.0 mi SE 11.5 mph - N/A   Clear
8:56 PM 77.0 °F - 64.0 °F 64% 29.73 in 10.0 mi ESE 9.2 mph - N/A   Clear
9:56 PM 75.0 °F - 64.9 °F 71% 29.72 in 10.0 mi SE 10.4 mph - N/A   Clear
10:56 PM 72.0 °F - 64.9 °F 78% 29.72 in 10.0 mi SE 8.1 mph - N/A   Clear
11:56 PM 72.0 °F - 64.9 °F 78% 29.71 in 10.0 mi SE 6.9 mph - N/A   Clear